Weather reports worldwide

Advertisment
Zwiesel, Germany (10796): temperature & dewpoint: 14.06.2019 06:00:00 - 20.06.2019 06:00:00 (CEST)Zwiesel, Germany (10796): temperature 5cm & temperature -5cm: 14.06.2019 06:00:00 - 20.06.2019 06:00:00 (CEST)Zwiesel, Germany (10796): temperature -20cm & temperature -100cm: 14.06.2019 06:00:00 - 20.06.2019 06:00:00 (CEST)Zwiesel, Germany (10796): wind speed & gusts: 14.06.2019 06:00:00 - 20.06.2019 06:00:00 (CEST)Zwiesel, Germany (10796): wind direction: 14.06.2019 06:00:00 - 20.06.2019 06:00:00 (CEST)Zwiesel, Germany (10796): reduced air pressure: 14.06.2019 06:00:00 - 20.06.2019 06:00:00 (CEST)Zwiesel, Germany (10796): visibility: 14.06.2019 06:00:00 - 20.06.2019 06:00:00 (CEST)Zwiesel, Germany (10796): sunshine duration: 14.06.2019 06:00:00 - 20.06.2019 06:00:00 (CEST)Zwiesel, Germany (10796): precipitation: 14.06.2019 06:00:00 - 20.06.2019 06:00:00 (CEST)
Date & Time tt [°C] td [°C] tt 5cm [°C] tt -5cm [°C] tt -20cm [°C] tt -100cm [°C] ff [km/h] ff [kn] fx [km/h] fx [kn] dd ppp [hPa] vv [km] sd [min] rr [mm]
20.06.2019 06:00:00 11,7 10,9 12,1 16,5 19,0 14,2 3 2 9 5 N 1014,4 12 0 0,0
20.06.2019 05:00:00 11,8 11,0 11,2 17,0 19,3 14,2 6 3 15 8 SSW 1013,6 15 0 0,0
20.06.2019 04:00:00 11,9 11,0 10,2 17,6 19,7 14,2 3 2 7 4 SSE 1013,1 14 0 0,0
20.06.2019 03:00:00 12,5 11,7 10,0 18,3 20,1 14,2 2 1 7 4 ESE 1012,6 18 0 0,0
20.06.2019 02:00:00 13,2 12,4 11,2 19,1 20,4 14,2 3 2 6 4 E 1012,5 15 0 0,0
20.06.2019 01:00:00 14,0 12,6 12,5 20,0 20,7 14,1 4 2 15 8 ESE 1012,3 19 0 0,0
20.06.2019 00:00:00 15,2 13,3 13,1 21,0 21,0 14,1 4 2 15 8 NE 1011,7 23 0 0,0
19.06.2019 23:00:00 16,7 14,0 15,0 22,1 21,2 14,1 7 4 12 6 NE 1011,2 30 0 0,0
19.06.2019 22:00:00 17,5 15,0 15,2 23,4 21,3 14,1 5 3 13 7 NW 1010,9 28 0 0,0
19.06.2019 21:00:00 20,9 15,4 18,7 24,7 21,2 14,1 4 2 9 5 N 1009,7 39 52 0,0
19.06.2019 20:00:00 24,4 15,2 26,2 25,3 21,1 14,1 4 2 8 5 NW 1008,9 56 60 0,0
19.06.2019 19:00:00 24,0 13,5 27,9 25,1 21,1 14,1 4 2 9 5 NE 1009,2 55 60 0,0
19.06.2019 18:00:00 23,4 12,5 26,0 25,1 21,0 14,1 4 2 13 7 N 1009,2 59 60 0,0
19.06.2019 17:00:00 19,5 14,5 23,9 24,6 20,9 14,1 9 5 23 12 NNE 1011,3 38 18 0,0
19.06.2019 16:00:00 17,7 12,9 16,9 25,8 20,6 14,1 10 5 29 16 NE 1012,3 37 0 0,5
19.06.2019 15:00:00 21,1 10,4 22,7 27,1 20,2 14,1 20 11 48 26 N 1011,5 53 11 0,0
19.06.2019 14:00:00 25,3 13,2 27,9 27,4 19,6 14,1 8 4 19 11 WSW 1010,1 34 24 0,0
19.06.2019 13:00:00 25,5 13,9 29,7 26,3 19,2 14,1 9 5 19 10 SW 1009,8 37 56 0,0
19.06.2019 12:00:00 24,7 14,0 29,5 24,2 18,8 14,1 9 5 15 8 SW 1010,4 28 39 0,0
19.06.2019 11:00:00 23,3 14,8 26,1 22,7 18,6 14,1 10 5 16 9 W 1010,9 36 34 0,0
19.06.2019 10:00:00 22,5 14,3 26,1 20,9 18,6 14,1 4 2 8 4 S 1011,4 29 53 0,0
19.06.2019 09:00:00 19,8 14,3 21,3 19,5 18,6 14,1 4 2 6 3 W 1012,4 25 19 0,0
19.06.2019 08:00:00 18,4 13,3 20,0 18,5 18,9 14,1 3 2 7 4 N 1012,8 26 60 0,0
19.06.2019 07:00:00 15,5 12,5 16,2 17,6 19,2 14,1 3 1 5 3 WSW 1013,6 18 45 0,0
19.06.2019 06:00:00 13,2 12,1 13,1 17,5 19,5 14,1 4 2 7 4 ESE 1014,3 12 0 0,0
19.06.2019 05:00:00 12,7 11,7 11,0 18,0 19,9 14,1 4 2 8 4 E 1014,5 12 0 0,0
19.06.2019 04:00:00 13,3 12,0 11,9 18,6 20,3 14,1 3 1 6 4 SSE 1014,3 17 0 0,0
19.06.2019 03:00:00 13,8 12,2 11,7 19,3 20,7 14,1 0 0 7 4 N 1014,4 21 0 0,0
19.06.2019 02:00:00 15,1 12,4 13,0 20,2 21,1 14,1 7 4 12 6 ESE 1014,4 25 0 0,0
19.06.2019 01:00:00 15,6 12,7 12,7 21,2 21,4 14,1 3 2 8 5 W 1014,3 20 0 0,0
19.06.2019 00:00:00 16,2 13,1 14,3 22,3 21,7 14,1 4 2 21 11 NNW 1014,0 26 0 0,0
18.06.2019 23:00:00 18,5 12,7 15,5 23,6 22,0 14,0 4 2 9 5 ENE 1013,4 25 0 0,0
18.06.2019 22:00:00 20,8 12,9 16,9 25,0 22,1 14,0 5 3 9 5 NE 1012,9 40 0 0,0
18.06.2019 21:00:00 22,1 13,7 19,0 26,6 22,0 14,0 3 2 13 7 NW 1012,3 34 8 0,0
18.06.2019 20:00:00 24,7 12,7 25,7 28,0 21,7 14,0 7 4 12 7 N 1011,5 60 40 0,0
18.06.2019 19:00:00 26,6 10,3 28,9 28,9 21,3 14,0 6 4 17 9 W 1011,0 56 60 0,0
18.06.2019 18:00:00 27,1 11,0 30,6 29,3 20,7 14,0 8 4 15 8 W 1010,9 54 60 0,0
18.06.2019 17:00:00 27,3 11,8 31,2 28,9 20,2 14,0 9 5 21 12 W 1011,2 46 60 0,0
18.06.2019 16:00:00 27,3 11,0 33,0 28,0 19,6 14,0 8 5 25 13 SSW 1011,8 45 60 0,0
18.06.2019 15:00:00 26,2 12,4 30,6 26,3 19,2 14,0 8 4 20 11 SSE 1012,6 54 43 0,0
18.06.2019 14:00:00 25,2 12,5 28,9 25,4 18,6 14,0 8 4 16 8 SSW 1013,2 54 13 0,0
18.06.2019 13:00:00 24,2 14,1 27,0 25,4 18,1 14,0 6 3 18 10 SW 1013,8 46 42 0,0
18.06.2019 12:00:00 24,6 12,5 30,6 23,7 17,7 14,0 9 5 21 12 SSE 1014,1 39 60 0,0
18.06.2019 11:00:00 23,2 12,1 28,0 21,7 17,4 14,0 11 6 22 12 SSE 1014,9 26 56 0,0
18.06.2019 10:00:00 22,4 13,1 26,2 20,0 17,3 14,0 5 3 10 5 SSW 1015,3 42 58 0,0
18.06.2019 09:00:00 20,7 11,7 22,7 18,0 17,3 14,0 3 2 5 3 NNW 1015,9 47 60 0,0
18.06.2019 08:00:00 18,5 11,4 19,7 16,5 17,5 14,0 2 1 8 4 N 1016,5 48 56 0,0
18.06.2019 07:00:00 15,0 11,1 15,3 15,8 17,8 14,0 4 2 10 5 N 1017,3 29 30 0,0
18.06.2019 06:00:00 13,0 10,7 11,5 15,9 18,1 14,0 6 3 15 8 NNE 1017,7 27 0 0,0
18.06.2019 05:00:00 14,3 11,0 11,9 16,3 18,4 14,0 7 4 13 7 NE 1017,6 44 0 0,0
18.06.2019 04:00:00 14,7 11,2 12,3 16,9 18,7 14,0 7 4 16 9 NE 1017,7 46 0 0,0
18.06.2019 03:00:00 15,0 11,4 13,0 17,4 19,0 14,0 9 5 14 8 NNE 1018,2 40 0 0,0
18.06.2019 02:00:00 16,2 11,7 14,1 18,0 19,3 13,9 9 5 16 9 NE 1018,2 54 0 0,0
18.06.2019 01:00:00 15,7 11,8 11,9 18,7 19,6 13,9 4 2 6 4 NNE 1018,6 51 0 0,0
18.06.2019 00:00:00 16,6 11,5 13,2 19,5 19,9 13,9 5 3 13 7 E 1018,6 52 0 0,0
17.06.2019 23:00:00 18,0 11,9 14,5 20,4 20,1 13,9 3 2 12 6 NE 1018,1 55 0 0,0
17.06.2019 22:00:00 19,0 12,0 16,0 21,4 20,3 13,9 4 2 14 7 NNE 1017,6 52 0 0,0
17.06.2019 21:00:00 20,6 11,9 18,7 22,5 20,3 13,9 7 4 22 12 NE 1017,0 70 42 0,0
17.06.2019 20:00:00 21,7 11,9 22,5 23,5 20,2 13,9 9 5 24 13 NE 1016,6 66 59 0,0
17.06.2019 19:00:00 22,7 10,8 24,2 24,2 20,1 13,9 8 5 23 12 ENE 1016,4 64 32 0,0
17.06.2019 18:00:00 22,5 11,1 23,6 24,9 19,8 13,9 14 8 22 12 E 1016,7 59 32 0,0
17.06.2019 17:00:00 22,6 11,2 24,2 25,3 19,4 13,9 16 8 28 15 E 1017,0 70 55 0,0
17.06.2019 16:00:00 23,6 10,9 28,4 24,9 19,0 13,9 12 7 29 15 E 1017,4 50 46 0,0
17.06.2019 15:00:00 23,0 10,0 27,4 24,8 18,5 13,9 10 5 19 10 E 1018,1 61 33 0,0
17.06.2019 14:00:00 21,7 9,5 24,2 24,9 18,1 13,9 10 6 20 11 ENE 1018,6 61 45 0,0
17.06.2019 13:00:00 23,1 10,7 28,7 22,9 17,7 13,9 8 4 16 9 NE 1018,5 41 54 0,0
17.06.2019 12:00:00 20,5 10,3 22,7 21,1 17,5 13,8 5 3 12 6 E 1019,4 70 20 0,0
17.06.2019 11:00:00 19,5 11,4 22,0 20,1 17,2 13,8 10 5 18 10 E 1019,9 37 7 0,0
17.06.2019 10:00:00 20,0 11,0 24,0 19,3 17,1 13,8 7 4 15 8 E 1019,8 56 41 0,0
17.06.2019 09:00:00 19,2 11,8 22,2 17,8 17,2 13,8 6 4 13 7 NNW 1020,5 54 60 0,0
17.06.2019 08:00:00 17,1 11,7 17,9 16,0 17,4 13,8 3 1 6 4 N 1021,2 40 60 0,0
17.06.2019 07:00:00 12,2 11,0 12,5 15,1 17,6 13,8 3 2 5 3 SSW 1022,5 18 19 0,0
17.06.2019 06:00:00 10,8 10,7 11,0 15,1 17,9 13,8 3 2 10 6 E 1022,9 12 0 0,0
17.06.2019 05:00:00 10,2 10,0 8,5 15,6 18,2 13,8 3 2 5 3 SSE 1023,0 8 0 0,0
17.06.2019 04:00:00 10,6 10,3 9,4 16,2 18,5 13,8 4 2 6 4 ESE 1022,6 7 0 0,0
17.06.2019 03:00:00 11,8 11,5 9,5 16,8 18,8 13,7 3 2 9 5 ESE 1022,3 9 0 0,0
17.06.2019 02:00:00 12,2 11,4 10,9 17,5 19,1 13,7 5 3 9 5 ESE 1022,3 23 0 0,0
17.06.2019 01:00:00 13,0 11,9 12,0 18,0 19,3 13,7 2 1 10 6 NNW 1022,9 40 0 0,0
17.06.2019 00:00:00 13,6 12,3 12,4 18,8 19,6 13,7 6 4 11 6 N 1022,4 36 0 0,0
16.06.2019 23:00:00 14,4 13,2 14,0 19,4 19,7 13,7 2 1 6 3 W 1021,9 44 0 0,0
16.06.2019 22:00:00 14,9 13,0 13,0 20,4 19,8 13,7 2 1 10 5 WSW 1021,5 35 0 0,0
16.06.2019 21:00:00 17,0 13,6 16,3 21,3 19,9 13,7 4 2 16 9 N 1020,4 61 11 0,0
16.06.2019 20:00:00 18,9 13,5 19,9 21,7 19,8 13,7 3 1 8 4 W 1019,9 65 26 0,0
16.06.2019 19:00:00 18,7 12,9 22,0 21,9 19,8 13,6 5 3 13 7 N 1019,6 64 27 0,0
16.06.2019 18:00:00 17,4 12,9 18,9 22,3 19,7 13,6 10 5 18 10 NNW 1020,0 65 9 0,0
16.06.2019 17:00:00 18,4 13,7 21,4 22,3 19,6 13,6 3 2 11 6 SE 1019,7 62 7 0,0
16.06.2019 16:00:00 17,2 13,7 18,8 22,3 19,5 13,6 8 4 12 7 W 1020,1 50 11 0,0
16.06.2019 15:00:00 16,5 13,3 18,3 21,4 19,5 13,6 6 3 10 5 WSW 1020,4 51 0 0,0
16.06.2019 14:00:00 16,4 13,8 16,8 21,1 19,4 13,6 0 0 10 6 N 1020,5 9 0 1,3
16.06.2019 13:00:00 17,0 12,8 20,0 20,9 19,4 13,6 7 4 17 9 NW 1020,0 65 0 0,0
16.06.2019 12:00:00 16,7 12,7 19,2 20,5 19,4 13,6 11 6 22 12 NNW 1020,0 52 1 0,0
16.06.2019 11:00:00 16,4 13,3 19,1 19,7 19,6 13,5 9 5 23 12 NNW 1019,6 57 1 0,0
16.06.2019 10:00:00 14,9 13,0 15,7 19,1 19,7 13,5 11 6 21 12 NNW 1019,6 51 0 0,0
16.06.2019 09:00:00 14,9 13,5 15,3 19,1 20,0 13,5 9 5 21 12 N 1018,9 24 0 0,0
16.06.2019 08:00:00 15,6 14,8 16,0 19,1 20,2 13,5 5 3 18 10 W 1017,9 22 0 0,0
16.06.2019 07:00:00 15,3 14,6 16,0 19,1 20,5 13,5 5 3 8 5 WSW 1017,4 21 0 0,0
16.06.2019 06:00:00 14,8 14,6 15,0 19,4 20,8 13,5 3 1 10 5 SW 1017,1 6 0 6,5
16.06.2019 05:00:00 14,9 14,2 15,0 19,9 21,1 13,5 5 3 25 13 ESE 1016,6 16 0 3,3
16.06.2019 04:00:00 16,0 14,2 15,5 20,4 21,5 13,5 8 4 16 9 WNW 1015,7 37 0 1,5
16.06.2019 03:00:00 18,1 11,9 16,2 20,7 21,8 13,4 5 3 18 10 NE 1014,8 32 0 0,0
16.06.2019 02:00:00 18,5 12,0 17,3 21,2 22,2 13,4 13 7 23 13 NNE 1014,0 70 0 0,0
16.06.2019 01:00:00 18,5 12,6 16,9 21,9 22,6 13,4 7 4 29 16 NNE 1014,3 54 0 0,0
16.06.2019 00:00:00 16,8 14,3 15,4 22,8 22,9 13,4 5 3 13 7 NE 1014,3 37 0 0,0
15.06.2019 23:00:00 16,1 15,0 15,2 23,8 23,3 13,4 4 2 6 4 NNW 1014,4 21 0 0,0
15.06.2019 22:00:00 17,6 16,1 15,9 25,2 23,5 13,4 3 1 6 4 SSE 1014,1 35 0 0,0
15.06.2019 21:00:00 18,8 16,2 18,5 26,5 23,7 13,4 2 1 8 4 WSW 1013,4 48 0 0,0
15.06.2019 20:00:00 20,1 14,9 19,5 28,0 23,7 13,4 6 3 31 17 NNW 1013,2 48 0 0,5
15.06.2019 19:00:00 23,6 12,6 23,6 29,6 23,5 13,3 16 9 26 14 W 1011,8 69 0 0,0
15.06.2019 18:00:00 25,7 12,5 27,1 30,9 23,2 13,3 16 9 26 14 WNW 1010,5 29 34 0,0
15.06.2019 17:00:00 25,8 12,2 27,1 31,8 22,7 13,3 16 9 31 17 W 1010,9 51 37 0,0
15.06.2019 16:00:00 27,9 12,6 32,2 32,0 22,1 13,3 15 8 28 15 W 1010,7 27 60 0,0
15.06.2019 15:00:00 28,1 12,8 33,8 31,2 21,5 13,3 12 6 29 16 WSW 1010,5 23 60 0,0
15.06.2019 14:00:00 27,3 12,2 31,3 30,0 20,9 13,3 19 11 35 19 W 1011,0 24 60 0,0
15.06.2019 13:00:00 27,7 13,5 33,4 28,4 20,5 13,3 15 8 31 17 W 1010,4 26 59 0,0
15.06.2019 12:00:00 27,2 11,4 31,6 26,5 20,2 13,3 19 11 31 17 WNW 1010,2 18 60 0,0
15.06.2019 11:00:00 27,2 10,9 31,7 24,1 20,1 13,2 10 6 22 12 SW 1009,9 31 60 0,0
15.06.2019 10:00:00 24,2 16,4 27,7 21,5 20,1 13,2 3 2 6 4 WSW 1010,4 29 19 0,0
15.06.2019 09:00:00 21,1 16,2 21,8 21,0 20,3 13,2 4 2 6 3 NNE 1010,4 26 0 0,0
15.06.2019 08:00:00 20,0 14,3 20,6 20,5 20,5 13,2 3 2 12 7 SW 1010,1 29 16 0,0
15.06.2019 07:00:00 17,6 14,4 18,8 20,1 20,8 13,2 4 2 6 3 NNW 1010,9 20 7 0,0
15.06.2019 06:00:00 16,8 13,6 15,5 20,2 21,1 13,2 4 2 8 4 SE 1011,1 22 0 0,0
15.06.2019 05:00:00 16,7 14,2 13,5 20,8 21,4 13,2 3 2 7 4 N 1011,2 19 0 0,0
15.06.2019 04:00:00 18,0 14,3 15,0 21,5 21,7 13,2 4 2 9 5 N 1011,2 23 0 0,0
15.06.2019 03:00:00 19,2 14,7 16,8 22,1 22,1 13,2 5 3 10 5 N 1010,7 24 0 0,0
15.06.2019 02:00:00 20,8 14,8 17,7 22,6 22,4 13,1 5 3 9 5 N 1010,4 27 0 0,0
15.06.2019 01:00:00 19,0 15,0 16,6 23,4 22,7 13,1 5 3 8 4 N 1011,1 21 0 0,0
15.06.2019 00:00:00 20,4 15,1 16,3 24,4 23,0 13,1 4 2 9 5 NNE 1011,3 24 0 0,0
14.06.2019 23:00:00 22,9 14,8 19,7 25,4 23,2 13,1 5 3 25 14 NNW 1010,9 30 0 0,0
14.06.2019 22:00:00 25,0 13,9 22,1 26,6 23,4 13,1 8 5 29 16 NNE 1010,5 35 0 0,0
14.06.2019 21:00:00 25,3 15,9 22,7 28,0 23,4 13,1 8 4 21 11 NE 1010,8 29 0 0,0
14.06.2019 20:00:00 27,1 15,5 24,4 29,5 23,3 13,1 4 2 16 9 E 1010,7 36 29 0,0
14.06.2019 19:00:00 28,3 14,1 28,2 30,8 23,0 13,1 5 3 13 7 E 1011,0 28 31 0,0
14.06.2019 18:00:00 29,2 11,4 30,1 31,9 22,5 13,1 9 5 23 12 SSE 1011,5 59 54 0,0
14.06.2019 17:00:00 31,1 9,7 36,0 32,0 22,0 13,1 8 4 19 11 SSE 1011,7 45 60 0,0
14.06.2019 16:00:00 30,0 8,1 35,2 31,8 21,3 13,0 12 7 25 13 SSE 1012,7 34 60 0,0
14.06.2019 15:00:00 29,5 6,9 34,6 31,0 20,7 13,0 15 8 27 15 S 1013,3 31 60 0,0
14.06.2019 14:00:00 29,0 8,6 34,0 29,6 20,1 13,0 12 6 29 15 SSE 1014,3 35 60 0,0
14.06.2019 13:00:00 27,9 8,3 33,6 27,8 19,6 13,0 11 6 27 14 SSE 1015,2 32 60 0,0
14.06.2019 12:00:00 26,4 8,0 31,5 25,8 19,2 13,0 14 7 29 16 SE 1015,6 26 60 0,0
14.06.2019 11:00:00 25,1 8,4 28,8 23,9 19,0 13,0 19 10 31 17 E 1016,1 22 60 0,0
14.06.2019 10:00:00 24,6 9,5 28,0 21,9 19,0 13,0 10 6 23 12 ESE 1016,4 29 60 0,0
14.06.2019 09:00:00 21,6 13,0 24,9 20,1 19,1 13,0 4 2 6 3 N 1017,2 40 60 0,0
14.06.2019 08:00:00 18,5 13,1 22,1 18,5 19,4 13,0 3 2 6 4 SSW 1017,9 31 60 0,0
14.06.2019 07:00:00 15,5 12,0 16,1 17,8 19,7 13,0 3 1 8 4 SSW 1018,7 20 45 0,0
14.06.2019 06:00:00 12,9 11,7 10,3 18,1 20,1 12,9 4 2 7 4 E 1019,4 22 0 0,0

tt = temperature
td = dewpoint
tt 5cm = temperature 5cm
tt -5cm = temperature -5cm
tt -20cm = temperature -20cm
tt -100cm = temperature -100cm
ff = wind speed
fx = gusts
dd = wind direction
ppp = reduced air pressure
vv = visibility
sd = sunshine duration
rr = precipitation

Next stations